Location: Sternwarte Stuttgart
(48.7670°N, 9.1830°E)
Time: 18:37:19
(UTC+02:00)

Cosmos 1302 Rocket - Pass Details

Date: 24 January 2019
Orbit: 756 x 776 km, 74.0° (Epoch: 17 October)

Event Time Altitude Azimuth Distance (km) Brightness Sun altitude
Exits shadow 05:25:54 82° 273° (W) 774 3.8 -25.7°
Maximum altitude 05:26:01 82° 248° (WSW) 773 3.8 -25.7°
Drops below altitude 10° 05:31:11 10° 162° (SSE) 2,281 6.7 -24.8°
Sets 05:33:32 0° 162° (SSE) 3,201 7.5 -24.4°
